Regional Weather Roundup
Issued by NWS Midland/Odessa, TX

Home | Current Version | Previous Version | Text Only | Print | Product List | Glossary On
Versions: 1 2 3 4 5 6 7 8 9 10 11 12 13 14 15 16 17 18 19 20 21 22 23 24 25 26 27 28 29 30 31 32 33 34 35 36 37 38 39 40 41 42 43 44 45 46 47 48 49 50
000
ASUS44 KMAF 261301
RWRMAF
MIDLAND AREA WEATHER ROUNDUP
NATIONAL WEATHER SERVICE MIDLAND TX
800 AM CDT THU MAY 26 2016

...IN SOUTHWEST TEXAS AND SOUTHEAST NEW MEXICO...

CITY           SKY/WX    TMP DP  RH WIND       PRES   REMARKS
ALPINE         SUNNY     68  45  42 W5        30.08S
ANDREWS        FAIR      69  69 100 SW7       29.91R FOG
ARTESIA        MOSUNNY   64  21  19 CALM      29.91R
BIG SPRING     MOSUNNY   70  64  80 SE8       29.90S
CARLSBAD       MOSUNNY   74  24  15 W13       29.89S
DRYDEN           N/A     77  61  57 SW5       29.88R
FORT STOCKTON  SUNNY     74  51  44 SW9       29.92R
GUAD PASS      NOT AVBL
HOBBS          SUNNY     66  48  52 S5        29.93S
MARFA          SUNNY     61  46  57 E3        30.08R
MIDLAND AIRPK  SUNNY     76  65  69 S8        29.88F
MIDLAND INTL   SUNNY     76  64  66 S10       29.88S
ODESSA         SUNNY     75  64  68 SW12      29.89S
PECOS          SUNNY     62  53  71 W7        29.89S
PRESIDIO       FAIR      77  48  35 E3        29.95S
SEMINOLE       SUNNY     68  66  93 SW8       29.92R FOG
SNYDER           N/A     72  59  64 SE10      29.88S
WINK           SUNNY     69  67  93 MISG      29.88R
$$
...OTHER STATIONS IN TEXAS...

CITY           SKY/WX    TMP DP  RH WIND       PRES   REMARKS
ABILENE        CLOUDY    74  59  59 SW7       29.90R
AMARILLO       SUNNY     67  54  63 SW15      29.86F
AUSTIN         CLOUDY    78  77  96 S9        29.93S FOG
BROWNSVILLE    CLOUDY    81  79  94 S8        29.96S
CORPUS CHRISTI CLOUDY    81  78  91 S9        29.94F FOG
DALLAS FTW     CLOUDY    79  73  82 S20       29.90R
DEL RIO        CLOUDY    75  65  70 SE15      29.87F
EL PASO        SUNNY     70  31  23 W25G32    29.97R
HOUSTON INT    CLOUDY    78  76  93 S7        29.99R
LUBBOCK        MOSUNNY   72  61  68 S18       29.88R
SAN ANGELO     CLOUDY    70  66  87 CALM      29.89S
SAN ANTONIO    CLOUDY    79  75  87 S10       29.95R
WACO           TSTM      72  67  84 W16       29.95R
WICHITA FALLS  NOT AVBL
$$
...OTHER LOCATIONS IN NEW MEXICO...

CITY           SKY/WX    TMP DP  RH WIND       PRES   REMARKS
ALAMAGORDO     SUNNY     57  25  28 S7        29.99R
ALBUQUERQUE    SUNNY     54  17  23 SE3       29.99R
CANNON AFB     MOSUNNY   61  42  50 W12       29.91F
CLOVIS         MOSUNNY   61  45  55 W12       29.91S
HOLLOMAN AFB   SUNNY     64  22  19 S6        29.98R
ROSWELL        MOSUNNY   66  23  19 W6        29.91R
RUIDOSO          N/A     54  18  24 SW10      30.08S
SANTA FE       MOSUNNY   50  22  33 CALM      30.00R
TRUTH OR CONSE SUNNY     59  21  23 W5        29.98R
TUCUMCARI      SUNNY     64  26  23 W12       29.87S
$$




USA.gov is the U.S. government's official web portal to all federal, state and local government web resources and services.